Weather History for Chicopee, MA

Change the Weather History Date:

Wednesday, January 22, 2014

  Actual Average Record
Temperature  
Mean Temperature 9 °F -  
Max Temperature 17 °F 28 °F 48 °F (1997)
Min Temperature 1 °F 13 °F -11 °F (2005)
Degree Days  
Heating Degree Days 56    
Moisture  
Dew Point -7 °F    
Average Humidity 52    
Maximum Humidity 65    
Minimum Humidity 38    
Precipitation  
Precipitation 0.00 in - - ()
Sea Level Pressure  
Sea Level Pressure 29.85 in    
Wind  
Wind Speed 16 mph (North)    
Max Wind Speed 24 mph    
Max Gust Speed 30 mph    
Visibility 10 miles    
Events      
Averages and records for this station are not official NWS values.
T = Trace of Precipitation, MM = Missing Value Source: NWS Daily Summary

Daily Weather History Graph

Daily Weather History Graph

Search for Another Location

Airport:

Trip Planner

Search our weather history database for the weather conditions in past years. The results will help you decide how hot, cold, wet, or windy it might be!

Date:

Astronomy

Jan. 22, 2014 Rise Set
Actual Time 7:12 AM EST 4:51 PM EST
Civil Twilight 6:41 AM EST 5:22 PM EST
Nautical Twilight 6:07 AM EST 5:56 PM EST
Astronomical Twilight 5:34 AM EST 6:29 PM EST
Moon 11:29 PM EST (1/22) 10:04 AM EST (1/22)
Length of Visible Light 10h 40m
Length of Day
9h 39m
Waning Gibbous, 65% of the Moon is Illuminated
Jan 22
Waning Gibbous
Jan 24
Last Quarter
Jan 30
New
Feb 6
First Quarter
Feb 14
Full

Hourly Weather History & Observations

Time (EST) Temp. Windchill Dew Point Humidity Pressure Visibility Wind Dir Wind Speed Gust Speed Precip Events Conditions
12:58 AM 7.9 °F -11.0 °F -1.8 °F 65% 29.86 in 10.0 mi North 18.4 mph - N/A   Scattered Clouds
1:58 AM 7.5 °F -10.9 °F -3.6 °F 60% 29.86 in 10.0 mi NNE 17.3 mph - N/A   Clear
2:58 AM 6.6 °F -11.5 °F -4.5 °F 60% 29.86 in 10.0 mi NNE 16.1 mph 25.3 mph N/A   Mostly Cloudy
3:58 AM 5.4 °F -13.1 °F -7.1 °F 57% 29.83 in 10.0 mi NNE 16.1 mph - N/A   Partly Cloudy
4:58 AM 4.6 °F -14.0 °F -7.4 °F 58% 29.85 in 10.0 mi NNE 16.1 mph 25.3 mph N/A   Overcast
5:58 AM 3.4 °F -16.8 °F -9.6 °F 55% 29.85 in 10.0 mi NNE 18.4 mph 26.5 mph N/A   Clear
6:58 AM 2.8 °F -17.5 °F -9.8 °F 56% 29.84 in 10.0 mi NNE 18.4 mph - N/A   Partly Cloudy
7:58 AM 1.9 °F -18.7 °F -10.5 °F 56% 29.83 in 10.0 mi NNE 18.4 mph 28.8 mph N/A   Clear
8:58 AM 2.3 °F -20.7 °F -10.1 °F 56% 29.83 in 10.0 mi NNE 24.2 mph 29.9 mph N/A   Clear
9:58 AM 4.8 °F -16.9 °F -9.4 °F 52% 29.82 in 10.0 mi NNE 23.0 mph 28.8 mph N/A   Clear
10:58 AM 7.7 °F -13.1 °F -8.3 °F 48% 29.78 in 10.0 mi NNE 23.0 mph 26.5 mph N/A   Clear
11:58 AM 10.0 °F -6.5 °F -7.1 °F 46% 29.75 in 10.0 mi NNE 15.0 mph 24.2 mph N/A   Clear
12:58 PM 14.0 °F -0.8 °F -4.7 °F 43% 29.73 in 10.0 mi North 13.8 mph 21.9 mph N/A   Clear
1:58 PM 16.5 °F 4.3 °F -4.5 °F 39% 29.75 in 10.0 mi NNE 10.4 mph - N/A   Clear
2:58 PM 17.2 °F 3.9 °F -4.7 °F 38% 29.78 in 10.0 mi North 12.7 mph - N/A   Clear
3:58 PM 16.5 °F 5.1 °F -5.3 °F 38% 29.80 in 10.0 mi North 9.2 mph - N/A   Clear
4:58 PM 12.7 °F -0.4 °F -5.3 °F 45% 29.83 in 10.0 mi NW 10.4 mph - N/A   Clear
5:58 PM 10.2 °F -4.3 °F -7.2 °F 45% 29.85 in 10.0 mi NNW 11.5 mph - N/A   Clear
6:58 PM 8.8 °F -5.3 °F -7.4 °F 48% 29.89 in 10.0 mi North 10.4 mph - N/A   Clear
7:58 PM 8.1 °F -5.3 °F -7.1 °F 50% 29.91 in 10.0 mi NNW 9.2 mph - N/A   Clear
8:58 PM 7.0 °F -8.3 °F -6.5 °F 54% 29.92 in 10.0 mi NNW 11.5 mph - N/A   Clear
9:58 PM 7.2 °F -5.4 °F -6.2 °F 55% 29.94 in 10.0 mi NNW 8.1 mph - N/A   Clear
10:58 PM 5.2 °F -3.8 °F -6.5 °F 59% 29.95 in 10.0 mi NW 4.6 mph - N/A   Clear
11:58 PM 4.8 °F -5.8 °F -6.3 °F 60% 29.97 in 10.0 mi NNW 5.8 mph - N/A   Clear